Hourly Weather Rudniki

Today, 20 April, Tuesday

Time Temperature Precipitation Wind Pressure Humidity
00:00 +6°C° 0 mm 2 mps 748 mmHg 89%
01:00 +5°C° 0 mm 2 mps 747 mmHg 91%
02:00 +5°C° 0 mm 2 mps 747 mmHg 92%
03:00 +5°C° 0 mm 2 mps 747 mmHg 93%
04:00 +5°C° 0 mm 2 mps 747 mmHg 93%
05:00 +4°C° 0 mm 2 mps 746 mmHg 94%
06:00 +5°C° 0.1 mm 2 mps 746 mmHg 89%
07:00 +5°C° 0.1 mm 3 mps 746 mmHg 85%
08:00 +7°C° 0.1 mm 3 mps 746 mmHg 81%
09:00 +7°C° 0 mm 3 mps 746 mmHg 78%
10:00 +8°C° 0 mm 3 mps 746 mmHg 76%
11:00 +8°C° 0 mm 3 mps 745 mmHg 74%
12:00 +9°C° 0.1 mm 3 mps 745 mmHg 72%
13:00 +9°C° 0.1 mm 3 mps 745 mmHg 70%
14:00 +9°C° 0.1 mm 3 mps 744 mmHg 68%
15:00 +9°C° 0.1 mm 3 mps 744 mmHg 69%
16:00 +9°C° 0.1 mm 3 mps 744 mmHg 69%
17:00 +9°C° 0.1 mm 3 mps 744 mmHg 70%
18:00 +8°C° 0 mm 3 mps 743 mmHg 74%
19:00 +7°C° 0 mm 2 mps 743 mmHg 79%
20:00 +6°C° 0 mm 2 mps 743 mmHg 84%
21:00 +5°C° 0 mm 2 mps 743 mmHg 86%
22:00 +5°C° 0 mm 2 mps 743 mmHg 88%
23:00 +5°C° 0 mm 1 mps 743 mmHg 91%

Tomorrow, 21 April, Wednesday

Time Temperature Precipitation Wind Pressure Humidity
00:00 +5°C° 0 mm 1 mps 743 mmHg 90%
01:00 +5°C° 0 mm 1 mps 743 mmHg 90%
02:00 +5°C° 0 mm 1 mps 742 mmHg 90%
03:00 +5°C° 0 mm 1 mps 742 mmHg 90%
04:00 +5°C° 0 mm 1 mps 742 mmHg 91%
05:00 +5°C° 0 mm 1 mps 742 mmHg 91%
06:00 +6°C° 0 mm 1 mps 742 mmHg 85%
07:00 +7°C° 0 mm 1 mps 742 mmHg 80%
08:00 +8°C° 0 mm 1 mps 742 mmHg 74%
09:00 +9°C° 0 mm 1 mps 742 mmHg 68%
10:00 +9°C° 0 mm 2 mps 742 mmHg 62%
11:00 +10°C° 0 mm 2 mps 741 mmHg 56%
12:00 +12°C° 0 mm 2 mps 741 mmHg 54%
13:00 +13°C° 0 mm 2 mps 741 mmHg 51%
14:00 +13°C° 0 mm 2 mps 741 mmHg 49%
15:00 +13°C° 0 mm 2 mps 741 mmHg 53%
16:00 +13°C° 0 mm 2 mps 741 mmHg 56%
17:00 +13°C° 0 mm 2 mps 741 mmHg 60%
18:00 +12°C° 0.2 mm 2 mps 741 mmHg 65%
19:00 +10°C° 0.2 mm 2 mps 741 mmHg 71%
20:00 +9°C° 0.2 mm 2 mps 741 mmHg 76%
21:00 +8°C° 0.2 mm 2 mps 741 mmHg 79%
22:00 +8°C° 0.2 mm 2 mps 741 mmHg 81%
23:00 +7°C° 0.2 mm 2 mps 741 mmHg 84%

Day after tomorrow, 22 April, Thursday

Time Temperature Precipitation Wind Pressure Humidity
00:00 +7°C° 0 mm 2 mps 741 mmHg 85%
01:00 +7°C° 0 mm 2 mps 741 mmHg 87%
02:00 +6°C° 0 mm 2 mps 741 mmHg 88%
03:00 +6°C° 0 mm 2 mps 741 mmHg 88%
04:00 +7°C° 0 mm 2 mps 741 mmHg 88%
05:00 +7°C° 0 mm 2 mps 741 mmHg 88%
06:00 +8°C° 0 mm 3 mps 741 mmHg 85%
07:00 +9°C° 0 mm 3 mps 742 mmHg 83%
08:00 +10°C° 0 mm 3 mps 742 mmHg 80%
09:00 +11°C° 0.5 mm 4 mps 742 mmHg 73%
10:00 +12°C° 0.5 mm 4 mps 742 mmHg 66%
11:00 +13°C° 0.5 mm 5 mps 742 mmHg 59%
12:00 +13°C° 0.2 mm 5 mps 742 mmHg 57%
13:00 +14°C° 0.2 mm 5 mps 742 mmHg 55%
14:00 +14°C° 0.2 mm 5 mps 742 mmHg 53%
15:00 +13°C° 0.1 mm 5 mps 743 mmHg 58%
16:00 +12°C° 0.1 mm 5 mps 743 mmHg 62%
17:00 +11°C° 0.1 mm 4 mps 743 mmHg 67%
18:00 +10°C° 0.5 mm 4 mps 743 mmHg 73%
19:00 +9°C° 0.5 mm 3 mps 743 mmHg 80%
20:00 +7°C° 0.5 mm 3 mps 743 mmHg 86%
21:00 +7°C° 0.9 mm 2 mps 743 mmHg 84%
22:00 +6°C° 0.9 mm 2 mps 743 mmHg 81%
23:00 +6°C° 0.9 mm 2 mps 743 mmHg 79%

23 April, Friday

Time Temperature Precipitation Wind Pressure Humidity
00:00 +5°C° 0 mm 2 mps 743 mmHg 80%
01:00 +5°C° 0 mm 2 mps 744 mmHg 80%
02:00 +3°C° 0 mm 3 mps 744 mmHg 80%
03:00 +3°C° 0 mm 3 mps 744 mmHg 80%
04:00 +3°C° 0 mm 3 mps 744 mmHg 79%
05:00 +3°C° 0 mm 2 mps 744 mmHg 79%
06:00 +3°C° 0 mm 3 mps 744 mmHg 75%
07:00 +3°C° 0 mm 3 mps 744 mmHg 72%
08:00 +3°C° 0 mm 4 mps 745 mmHg 68%
09:00 +5°C° 0 mm 4 mps 745 mmHg 63%
10:00 +6°C° 0 mm 5 mps 745 mmHg 57%
11:00 +7°C° 0 mm 5 mps 745 mmHg 52%
12:00 +7°C° 0.3 mm 6 mps 744 mmHg 54%
13:00 +7°C° 0.3 mm 6 mps 744 mmHg 56%
14:00 +5°C° 0.3 mm 6 mps 744 mmHg 58%
15:00 +5°C° 0.3 mm 6 mps 744 mmHg 59%
16:00 +5°C° 0.3 mm 6 mps 744 mmHg 60%
17:00 +6°C° 0.3 mm 5 mps 744 mmHg 61%
18:00 +5°C° 0.1 mm 5 mps 744 mmHg 70%
19:00 +2°C° 0.1 mm 5 mps 745 mmHg 78%
20:00 +1°C° 0.1 mm 5 mps 745 mmHg 87%
21:00 +1°C° 0 mm 5 mps 745 mmHg 87%
22:00 0°C° 0 mm 5 mps 745 mmHg 87%
23:00 0°C° 0 mm 5 mps 745 mmHg 87%

24 April, Saturday

Time Temperature Precipitation Wind Pressure Humidity
00:00 -1°C° 0.1 mm 5 mps 745 mmHg 89%
01:00 -1°C° 0.1 mm 5 mps 745 mmHg 92%
02:00 -1°C° 0.1 mm 4 mps 745 mmHg 94%
03:00 -2°C° 0.1 mm 5 mps 746 mmHg 93%
04:00 -2°C° 0.1 mm 5 mps 746 mmHg 91%
05:00 -4°C° 0.1 mm 5 mps 746 mmHg 90%
06:00 -2°C° 0 mm 5 mps 746 mmHg 84%
07:00 -1°C° 0 mm 5 mps 746 mmHg 77%
08:00 -1°C° 0 mm 6 mps 746 mmHg 71%
09:00 +1°C° 0.2 mm 6 mps 746 mmHg 65%
10:00 +2°C° 0.2 mm 7 mps 746 mmHg 60%
11:00 +3°C° 0.2 mm 7 mps 746 mmHg 55%
12:00 +4°C° 0.2 mm 7 mps 746 mmHg 53%
13:00 +4°C° 0.2 mm 7 mps 746 mmHg 51%
14:00 +5°C° 0.2 mm 7 mps 746 mmHg 49%
15:00 +5°C° 0.2 mm 7 mps 746 mmHg 52%
16:00 +4°C° 0.2 mm 6 mps 746 mmHg 56%
17:00 +4°C° 0.2 mm 6 mps 746 mmHg 60%
18:00 +3°C° 0.1 mm 5 mps 746 mmHg 66%
19:00 +1°C° 0.1 mm 4 mps 746 mmHg 72%
20:00 +1°C° 0.1 mm 3 mps 746 mmHg 79%
21:00 +1°C° 0 mm 3 mps 746 mmHg 80%
22:00 0°C° 0 mm 3 mps 746 mmHg 81%
23:00 -1°C° 0 mm 3 mps 746 mmHg 82%

25 April, Sunday

Time Temperature Precipitation Wind Pressure Humidity
00:00 -1°C° 0 mm 3 mps 746 mmHg 84%
01:00 -2°C° 0 mm 3 mps 746 mmHg 85%
02:00 -2°C° 0 mm 3 mps 746 mmHg 87%
03:00 -3°C° 0 mm 4 mps 746 mmHg 87%
04:00 -4°C° 0 mm 4 mps 747 mmHg 87%
05:00 -4°C° 0 mm 4 mps 747 mmHg 87%
06:00 -2°C° 0 mm 4 mps 747 mmHg 79%
07:00 -1°C° 0 mm 5 mps 747 mmHg 72%
08:00 0°C° 0 mm 5 mps 747 mmHg 65%
09:00 +2°C° 0.1 mm 6 mps 747 mmHg 60%
10:00 +3°C° 0.1 mm 7 mps 747 mmHg 54%
11:00 +4°C° 0.1 mm 8 mps 746 mmHg 49%
12:00 +4°C° 0.2 mm 8 mps 746 mmHg 49%
13:00 +5°C° 0.2 mm 8 mps 746 mmHg 49%
14:00 +5°C° 0.2 mm 9 mps 746 mmHg 50%
15:00 +5°C° 0.3 mm 8 mps 746 mmHg 56%
16:00 +4°C° 0.3 mm 8 mps 746 mmHg 63%
17:00 +4°C° 0.3 mm 8 mps 746 mmHg 70%
18:00 +3°C° 0.1 mm 7 mps 746 mmHg 73%
19:00 +2°C° 0.1 mm 6 mps 747 mmHg 77%
20:00 +1°C° 0.1 mm 6 mps 747 mmHg 80%
21:00 0°C° 0 mm 5 mps 747 mmHg 82%
22:00 -1°C° 0 mm 5 mps 747 mmHg 83%
23:00 -1°C° 0 mm 5 mps 748 mmHg 84%
Show more